Location: Unspecified
(0.0000°N, 0.0000°E)
Time: 05:48:16
(UTC+00:00)

Alouette 1 - Visible Passes

Search period start: 23 October 2021 00:00
Search period end: 02 November 2021 00:00
Orbit: 986 x 1019 km, 80.5° (Epoch: 22 October)

Date Brightness Start Highest point End Pass type
(mag) Time Alt. Az. Time Alt. Az. Time Alt. Az.
23 Oct 6.0 18:40:33 10° N 18:47:00 81° E 18:53:25 10° S visible
24 Oct 7.5 19:14:35 10° NNW 19:20:28 38° W 19:26:21 10° SSW visible
25 Oct 6.3 18:01:51 10° NNE 18:07:59 47° E 18:14:04 10° SSE visible
25 Oct 8.9 19:50:54 10° WNW 19:53:57 14° W 19:57:00 10° SW visible
26 Oct 6.5 18:35:04 10° NNW 18:41:27 67° W 18:47:48 10° S visible
27 Oct 8.3 19:09:50 10° NW 19:14:55 25° W 19:20:00 10° SSW visible
28 Oct 9.5 04:50:54 10° ESE 04:52:38 11° E 04:54:21 10° E visible
28 Oct 6.1 17:56:02 10° N 18:02:26 72° E 18:08:47 10° SSE visible
29 Oct 7.4 18:29:52 10° NNW 18:35:53 44° W 18:41:55 10° SSW visible
30 Oct 9.0 19:05:42 10° WNW 19:09:22 16° W 19:13:03 10° SW visible
31 Oct 8.9 04:42:50 10° SE 04:47:05 19° E 04:51:19 10° NE visible
01 Nov 7.2 05:14:24 10° S 05:20:33 51° E 05:26:42 10° NNE visible
01 Nov 8.3 18:24:59 10° NW 18:30:20 28° W 18:35:41 10° SSW visible
